F/V Le Dolmen — FHMD — position and weather

sailwx.info

Track history (hours):
 
Tides and Currents Weather Stations Pressure Air Temp Water Temp Dewpoint Dewpoint Depression Visibility Wind Speed Wind Dir Waves Ship Positions

F/V Le Dolmen

Last reported at 2014-Oct-22 21:15 UTC. Time now 2014-Oct-24 09:40 UTC.
Position N 47°35' W 003°17'.

Length 18 m.

Type: Fishing. MMSI: 228374000.

Date/timePositionNaut miles runAvg speedWind from/ knotsBaromVisibWave heightAir tempDewpointWater temp
2014-Oct-22 21:15N 47°35' W 003°17'7 9.8
2014-Oct-22 20:33N 47°40' W 003°22'3 3.3
2014-Oct-22 19:33N 47°44' W 003°22'0 0.1
2014-Oct-22 18:33N 47°44' W 003°22'  
2014-Oct-17 02:29N 47°44' W 003°22'0 0.0
2014-Oct-17 01:33N 47°44' W 003°22'1 0.9
2014-Oct-17 00:33N 47°43' W 003°22'23 0.8
2014-Oct-15 17:33N 47°20' W 003°27'29 1.3
2014-Oct-14 19:26N 47°19' W 002°44'37 2.7
2014-Oct-14 05:29N 47°40' W 003°30'7 7.4
2014-Oct-14 04:33N 47°44' W 003°22'0 0.0
2014-Oct-14 03:34N 47°44' W 003°22'0 0.0
2014-Oct-14 02:33N 47°44' W 003°22'0 0.0
2014-Oct-14 01:34N 47°44' W 003°22'0 0.0
2014-Oct-14 00:34N 47°44' W 003°22'0 0.0
2014-Oct-13 23:33N 47°44' W 003°22'0 0.0
2014-Oct-13 22:33N 47°44' W 003°22'0 0.0
2014-Oct-13 21:34N 47°44' W 003°22'0 0.0
2014-Oct-13 20:34N 47°44' W 003°22'0 0.0
2014-Oct-13 19:34N 47°44' W 003°22'0 0.0
2014-Oct-13 18:34N 47°44' W 003°22'1 0.7
2014-Oct-13 17:34N 47°43' W 003°22'8 7.3
2014-Oct-13 16:31N 47°39' W 003°31'6 0.6
2014-Oct-13 06:22N 47°38' W 003°23'6 7.2
2014-Oct-13 05:34N 47°44' W 003°22'0 0.0
2014-Oct-13 04:34N 47°44' W 003°22'0 0.0
2014-Oct-13 03:33N 47°44' W 003°22'0 0.0
2014-Oct-13 02:34N 47°44' W 003°22'0 0.0
2014-Oct-13 01:34N 47°44' W 003°22'0 0.0
2014-Oct-13 00:34N 47°44' W 003°22'0 0.0
2014-Oct-12 23:34N 47°44' W 003°22'0 0.0
2014-Oct-12 22:34N 47°44' W 003°22'0 0.2
2014-Oct-12 21:34N 47°44' W 003°22'  
Track history (hours):
 
Tides and Currents Weather Stations Pressure Air Temp Water Temp Dewpoint Dewpoint Depression Visibility Wind Speed Wind Dir Waves Ship Positions

F/V Le Dolmen

Last reported at 2014-Oct-22 21:15 UTC. Time now 2014-Oct-24 09:40 UTC.
Position N 47°35' W 003°17'.

Length 18 m.

Type: Fishing. MMSI: 228374000.

Date/timePositionNaut miles runAvg speedWind from/ knotsBaromVisibWave heightAir tempDewpointWater temp
2014-Oct-22 21:15N 47°35' W 003°17'7 9.8
2014-Oct-22 20:33N 47°40' W 003°22'3 3.3
2014-Oct-22 19:33N 47°44' W 003°22'0 0.1
2014-Oct-22 18:33N 47°44' W 003°22'  
2014-Oct-17 02:29N 47°44' W 003°22'0 0.0
2014-Oct-17 01:33N 47°44' W 003°22'1 0.9
2014-Oct-17 00:33N 47°43' W 003°22'23 0.8
2014-Oct-15 17:33N 47°20' W 003°27'29 1.3
2014-Oct-14 19:26N 47°19' W 002°44'37 2.7
2014-Oct-14 05:29N 47°40' W 003°30'7 7.4
2014-Oct-14 04:33N 47°44' W 003°22'0 0.0
2014-Oct-14 03:34N 47°44' W 003°22'0 0.0
2014-Oct-14 02:33N 47°44' W 003°22'0 0.0
2014-Oct-14 01:34N 47°44' W 003°22'0 0.0
2014-Oct-14 00:34N 47°44' W 003°22'0 0.0
2014-Oct-13 23:33N 47°44' W 003°22'0 0.0
2014-Oct-13 22:33N 47°44' W 003°22'0 0.0
2014-Oct-13 21:34N 47°44' W 003°22'0 0.0
2014-Oct-13 20:34N 47°44' W 003°22'0 0.0
2014-Oct-13 19:34N 47°44' W 003°22'0 0.0
2014-Oct-13 18:34N 47°44' W 003°22'1 0.7
2014-Oct-13 17:34N 47°43' W 003°22'8 7.3
2014-Oct-13 16:31N 47°39' W 003°31'6 0.6
2014-Oct-13 06:22N 47°38' W 003°23'6 7.2
2014-Oct-13 05:34N 47°44' W 003°22'0 0.0
2014-Oct-13 04:34N 47°44' W 003°22'0 0.0
2014-Oct-13 03:33N 47°44' W 003°22'0 0.0
2014-Oct-13 02:34N 47°44' W 003°22'0 0.0
2014-Oct-13 01:34N 47°44' W 003°22'0 0.0
2014-Oct-13 00:34N 47°44' W 003°22'0 0.0
2014-Oct-12 23:34N 47°44' W 003°22'0 0.0
2014-Oct-12 22:34N 47°44' W 003°22'0 0.2
2014-Oct-12 21:34N 47°44' W 003°22'  

Dump ship's entire track history